Waarnemingen

Advertentie
Mijn weer
Bierset/Liege, België (6478): temperatuur & dauwpunt: 17.11.2017 12:00:00 - 23.11.2017 12:00:00 (CET)Bierset/Liege, België (6478): windsnelheid & windstoten: 17.11.2017 12:00:00 - 23.11.2017 12:00:00 (CET)Bierset/Liege, België (6478): windrichting: 17.11.2017 12:00:00 - 23.11.2017 12:00:00 (CET)Bierset/Liege, België (6478): luchtdruk: 17.11.2017 12:00:00 - 23.11.2017 12:00:00 (CET)Bierset/Liege, België (6478): zicht: 17.11.2017 12:00:00 - 23.11.2017 12:00:00 (CET)
Datum & Tijd tt [°C] td [°C] ff [km/u] ff [kn] fx [km/u] fx [kn] dd ppp [hPa] vv [km]
23.11.2017 12:00:00 - - - - - - - - -
23.11.2017 11:00:00 12,4 7,3 41 22 65 35 ZZW 1002,6 10
23.11.2017 10:00:00 13,5 6,1 44 24 - - ZZW 1001,2 10
23.11.2017 09:00:00 12,7 4,9 39 21 65 35 ZZW 1000,6 10
23.11.2017 08:00:00 11,8 3,9 41 22 61 33 Z 999,9 10
23.11.2017 07:00:00 11,6 3,6 41 22 - - Z 999,8 10
23.11.2017 06:00:00 11,6 3,2 39 21 58 31 ZZW 1000,1 10
23.11.2017 05:00:00 11,5 3,0 37 20 50 27 Z 1000,4 10
23.11.2017 04:00:00 11,0 2,5 31 17 - - Z 1000,9 10
23.11.2017 03:00:00 10,7 2,1 35 19 58 31 Z 1001,4 10
23.11.2017 02:00:00 10,8 1,8 31 17 54 29 Z 1002,2 10
23.11.2017 01:00:00 11,2 2,0 37 20 - - Z 1002,7 10
23.11.2017 00:00:00 11,8 2,0 31 17 50 27 ZZW 1003,1 10
22.11.2017 23:00:00 10,8 2,1 28 15 43 23 Z 1003,2 10
22.11.2017 22:00:00 10,2 2,0 21 11 - - Z 1003,8 10
22.11.2017 21:00:00 10,2 2,2 26 14 43 23 Z 1004,2 10
22.11.2017 20:00:00 9,8 4,6 28 15 47 25 Z 1004,6 10
22.11.2017 19:00:00 10,2 3,5 29 16 - - Z 1005,1 10
22.11.2017 18:00:00 10,3 3,6 29 16 47 25 Z 1005,5 10
22.11.2017 17:00:00 10,7 3,9 24 13 43 23 Z 1006,3 10
22.11.2017 16:00:00 11,9 5,1 28 15 - - Z 1006,3 10
22.11.2017 15:00:00 12,4 10,1 28 15 40 21 Z 1007,1 10
22.11.2017 14:00:00 12,1 9,8 22 12 40 21 Z 1007,8 10
22.11.2017 13:00:00 11,3 9,0 26 14 - - ZZW 1008,4 10
22.11.2017 12:00:00 10,4 8,2 31 17 43 23 Z 1009,0 10
22.11.2017 11:00:00 9,4 7,2 29 16 50 27 ZZW 1009,4 10
22.11.2017 10:00:00 8,9 6,7 34 18 - - ZZW 1009,5 10
22.11.2017 09:00:00 8,4 6,2 26 14 40 21 ZZW 1009,7 10
22.11.2017 08:00:00 8,6 6,0 26 14 40 21 ZZW 1009,5 10
22.11.2017 07:00:00 8,9 6,3 26 14 - - ZZW 1009,3 10
22.11.2017 06:00:00 8,9 6,3 24 13 40 21 ZZW 1010,0 10
22.11.2017 05:00:00 9,1 6,5 22 12 40 21 ZZW 1010,2 10
22.11.2017 04:00:00 9,2 6,6 26 14 - - ZZW 1010,4 10
22.11.2017 03:00:00 8,8 6,2 22 12 40 21 ZZW 1010,8 10
22.11.2017 02:00:00 8,9 6,3 28 15 47 25 ZZW 1011,2 10
22.11.2017 01:00:00 8,9 6,3 28 15 - - ZZW 1011,6 10
22.11.2017 00:00:00 8,6 6,0 24 13 36 19 ZZW 1011,8 10
21.11.2017 23:00:00 8,5 5,9 26 14 43 23 ZZW 1011,8 10
21.11.2017 22:00:00 8,3 6,1 26 14 - - ZZW 1012,4 10
21.11.2017 21:00:00 8,3 6,1 28 15 40 21 ZZW 1012,8 10
21.11.2017 20:00:00 8,3 7,4 26 14 36 19 ZZW 1013,1 10
21.11.2017 19:00:00 8,1 7,2 26 14 - - ZZW 1013,5 10
21.11.2017 18:00:00 8,2 7,3 28 15 40 21 ZZW 1013,6 10
21.11.2017 17:00:00 8,4 7,5 29 16 40 21 ZZW 1013,6 10
21.11.2017 16:00:00 8,7 7,8 29 16 - - ZW 1013,6 10
21.11.2017 15:00:00 8,9 8,0 28 15 40 21 ZZW 1013,8 10
21.11.2017 14:00:00 9,0 8,1 29 16 47 25 ZW 1014,1 10
21.11.2017 13:00:00 9,1 8,2 29 16 - - ZW 1014,3 9
21.11.2017 12:00:00 9,1 8,2 31 17 47 25 ZW 1014,5 5
21.11.2017 11:00:00 9,2 8,3 28 15 40 21 ZW 1014,6 4,5
21.11.2017 10:00:00 9,5 8,6 28 15 - - ZW 1014,3 4,5
21.11.2017 09:00:00 9,4 8,5 28 15 40 21 ZW 1014,1 5
21.11.2017 08:00:00 9,3 8,4 26 14 36 19 ZW 1013,9 3,2
21.11.2017 07:00:00 9,4 8,5 24 13 - - ZW 1013,7 7
21.11.2017 06:00:00 9,4 8,5 24 13 32 18 WZW 1013,5 6
21.11.2017 05:00:00 9,4 8,5 18 10 32 18 WZW 1013,8 2,5
21.11.2017 04:00:00 9,2 8,3 21 11 - - WZW 1014,0 10
21.11.2017 03:00:00 9,1 8,2 24 13 32 18 ZW 1014,2 9
21.11.2017 02:00:00 9,2 8,3 24 13 40 21 WZW 1014,1 8
21.11.2017 01:00:00 9,2 8,3 26 14 - - WZW 1014,0 8
21.11.2017 00:00:00 8,8 7,9 24 13 36 19 WZW 1014,1 4,5
20.11.2017 23:00:00 8,6 7,7 24 13 40 21 WZW 1013,9 5
20.11.2017 22:00:00 8,4 7,5 26 14 - - WZW 1014,2 7
20.11.2017 21:00:00 8,1 7,2 29 16 43 23 ZW 1014,1 6
20.11.2017 20:00:00 7,7 6,8 29 16 43 23 ZW 1013,9 2,5
20.11.2017 19:00:00 7,5 6,3 31 17 - - ZW 1014,1 9
20.11.2017 18:00:00 7,3 6,2 31 17 47 25 ZW 1014,6 9
20.11.2017 17:00:00 6,6 5,5 31 17 43 23 ZW 1015,0 6
20.11.2017 16:00:00 6,0 5,0 29 16 - - ZW 1015,3 3,6
20.11.2017 15:00:00 5,7 4,8 29 16 40 21 ZZW 1016,2 10
20.11.2017 14:00:00 4,7 4,0 22 12 32 18 ZZW 1017,4 2,2
20.11.2017 13:00:00 4,5 3,5 18 10 - - ZZW 1018,2 2,3
20.11.2017 12:00:00 4,0 3,0 24 13 32 18 ZZW 1019,5 4,3
20.11.2017 11:00:00 3,5 2,0 21 11 43 23 ZZW 1020,3 9
20.11.2017 10:00:00 3,3 -3,0 15 8 - - Z 1020,9 10
20.11.2017 09:00:00 3,0 -1,6 13 7 25 14 ZZW 1021,9 10
20.11.2017 08:00:00 2,8 -0,7 18 10 25 14 ZZW 1022,2 10
20.11.2017 07:00:00 2,4 -2,0 15 8 - - ZZW 1022,0 10
20.11.2017 06:00:00 2,3 -0,1 16 9 29 16 ZZW 1022,2 10
20.11.2017 05:00:00 2,2 -2,9 18 10 29 16 ZZW 1022,5 10
20.11.2017 04:00:00 2,1 -0,4 15 8 - - ZZW 1022,9 10
20.11.2017 03:00:00 2,2 -1,9 14 8 25 14 ZW 1023,4 10
20.11.2017 02:00:00 2,2 -0,2 15 8 22 12 ZW 1023,6 10
20.11.2017 01:00:00 2,2 -2,9 15 8 - - ZW 1023,9 10
20.11.2017 00:00:00 1,1 -0,5 13 7 18 10 ZW 1024,3 10
19.11.2017 23:00:00 2,4 -2,5 15 8 25 14 WZW 1024,3 10
19.11.2017 22:00:00 2,9 1,1 18 10 - - WZW 1024,1 10
19.11.2017 21:00:00 3,3 -0,7 15 8 22 12 W 1023,6 10
19.11.2017 20:00:00 3,7 2,8 13 7 22 12 W 1023,1 10
19.11.2017 19:00:00 3,7 -0,9 11 6 - - W 1022,8 10
19.11.2017 18:00:00 5,0 4,8 15 8 29 16 W 1022,2 10
19.11.2017 17:00:00 5,0 1,6 15 8 25 14 W 1021,8 10
19.11.2017 16:00:00 6,0 2,3 21 11 - - W 1021,5 10
19.11.2017 15:00:00 5,8 3,0 18 10 32 18 W 1021,3 10
19.11.2017 14:00:00 5,7 1,9 18 10 36 19 W 1021,1 10
19.11.2017 13:00:00 6,0 2,1 26 14 - - W 1021,0 10
19.11.2017 12:00:00 5,3 1,1 21 11 29 16 W 1020,9 10
19.11.2017 11:00:00 4,4 0,9 18 10 25 14 W 1020,7 10
19.11.2017 10:00:00 3,5 -1,6 15 8 - - W 1020,3 10
19.11.2017 09:00:00 3,2 -0,9 11 6 22 12 W 1019,8 10
19.11.2017 08:00:00 2,9 0,1 15 8 22 12 W 1019,3 10
19.11.2017 07:00:00 2,4 -1,4 13 7 - - W 1018,7 10
19.11.2017 06:00:00 2,2 1,7 13 7 18 10 W 1018,5 10
19.11.2017 05:00:00 3,7 0,1 11 6 22 12 W 1018,0 10
19.11.2017 04:00:00 4,0 1,2 15 8 - - W 1017,7 10
19.11.2017 03:00:00 5,1 2,6 15 8 25 14 W 1017,4 10
19.11.2017 02:00:00 5,6 2,6 16 9 29 16 W 1017,0 10
19.11.2017 01:00:00 5,6 4,3 18 10 - - W 1017,1 9
19.11.2017 00:00:00 6,2 5,2 16 9 25 14 W 1017,5 8
18.11.2017 23:00:00 5,9 3,6 13 7 32 18 WZW 1017,7 4,5
18.11.2017 22:00:00 5,5 4,7 22 12 - - ZW 1017,8 5
18.11.2017 21:00:00 5,1 4,0 24 13 36 19 ZW 1018,4 4,5
18.11.2017 20:00:00 5,1 3,9 26 14 40 21 ZW 1019,0 4,0
18.11.2017 19:00:00 5,5 3,7 24 13 - - ZW 1019,3 7
18.11.2017 18:00:00 5,9 1,9 24 13 32 18 ZW 1019,8 10
18.11.2017 17:00:00 5,7 1,4 24 13 40 21 WZW 1020,1 10
18.11.2017 16:00:00 5,6 0,9 26 14 - - ZW 1020,3 10
18.11.2017 15:00:00 5,4 0,4 26 14 40 21 ZW 1020,7 10
18.11.2017 14:00:00 5,1 0,0 26 14 40 21 WZW 1021,4 10
18.11.2017 13:00:00 4,7 -0,1 26 14 - - WZW 1022,3 10
18.11.2017 12:00:00 4,4 -0,6 24 13 32 18 WZW 1023,2 10
18.11.2017 11:00:00 3,7 -1,6 22 12 32 18 ZW 1023,3 10
18.11.2017 10:00:00 2,9 -0,9 18 10 - - ZW 1024,0 10
18.11.2017 09:00:00 1,7 0,4 18 10 25 14 ZW 1024,4 8
18.11.2017 08:00:00 1,0 -0,3 18 10 25 14 ZW 1024,3 8
18.11.2017 07:00:00 1,2 -0,1 16 9 - - ZZW 1024,2 9
18.11.2017 06:00:00 1,4 -0,5 15 8 22 12 ZZW 1024,6 9
18.11.2017 05:00:00 1,6 -0,3 15 8 25 14 ZZW 1025,1 9
18.11.2017 04:00:00 1,3 -0,6 11 6 - - ZZW 1025,5 10
18.11.2017 03:00:00 1,6 -0,3 8 4 25 14 Z 1026,2 10
18.11.2017 02:00:00 1,0 -0,9 9 5 22 12 ZW 1026,6 10
18.11.2017 01:00:00 1,6 -0,3 9 5 - - ZZO 1026,7 10
18.11.2017 00:00:00 2,0 0,4 2 1 14 8 - 1027,1 10
17.11.2017 23:00:00 2,4 0,8 9 5 14 8 Z 1027,1 10
17.11.2017 22:00:00 2,9 0,1 5 3 - - ZZW 1027,4 10
17.11.2017 21:00:00 4,1 -0,3 5 3 14 8 Z 1027,2 10
17.11.2017 20:00:00 4,6 3,6 4 2 11 6 - 1027,6 10
17.11.2017 19:00:00 3,4 2,4 2 1 - - - 1027,6 10
17.11.2017 18:00:00 4,1 3,1 4 2 4 2 NNW 1027,8 10
17.11.2017 17:00:00 6,1 5,1 4 2 7 4 N 1027,4 10
17.11.2017 16:00:00 7,0 5,9 5 3 - - NNW 1027,6 10
17.11.2017 15:00:00 7,4 6,3 9 5 14 8 NNO 1027,7 10
17.11.2017 14:00:00 8,6 7,5 8 4 18 10 NNO 1027,8 10
17.11.2017 13:00:00 8,0 6,9 9 5 - - NO 1027,9 10
17.11.2017 12:00:00 8,2 7,1 8 4 14 8 ONO 1028,1 10

tt = temperatuur
td = dauwpunt
ff = windsnelheid
fx = windstoten
dd = windrichting
ppp = luchtdruk
vv = zicht

Weerstations in de omgeving